| time (UTC) | temp C | wind direction | speed KPH | gust KPH | rain 1hr cm | rain 24hr cm | rain mn cm | humidity % | barometer mb |
| 20260904124021 | 23 | 0 | 0.0 | 9.7 | 0.00 | 0.00 | 0.00 | 82 | 1014.7 |
| 20260904123528 | 23 | 171 | 1.6 | 9.7 | 0.00 | 0.00 | 0.00 | 82 | 1014.7 |
| 20260904123103 | 23 | 160 | 1.6 | 9.7 | 0.00 | 0.00 | 0.00 | 82 | 1014.6 |
| 20260904122524 | 23 | 163 | 1.6 | 9.7 | 0.00 | 0.00 | 0.00 | 82 | 1014.6 |
| 20260904122025 | 23 | 167 | 1.6 | 9.7 | 0.00 | 0.00 | 0.00 | 81 | 1014.6 |
| 20260904121541 | 23 | 166 | 1.6 | 9.7 | 0.00 | 0.00 | 0.00 | 81 | 1014.5 |
| 20260904121026 | 23 | 184 | 1.6 | 8.0 | 0.00 | 0.00 | 0.00 | 81 | 1014.4 |
| 20260904120524 | 23 | 165 | 0.0 | 4.8 | 0.00 | 0.00 | 0.00 | 81 | 1014.3 |
| 20260904120047 | 23 | 0 | 0.0 | 6.4 | 0.00 | 0.00 | 0.00 | 81 | 1014.1 |
| 20260904115523 | 23 | 0 | 0.0 | 9.7 | 0.00 | 0.00 | 0.00 | 81 | 1014.0 |
| 20260904115025 | 23 | 0 | 0.0 | 9.7 | 0.00 | 0.00 | 0.00 | 81 | 1014.1 |
| 20260904114546 | 23 | 173 | 1.6 | 9.7 | 0.00 | 0.00 | 0.00 | 81 | 1014.0 |
| 20260904114025 | 23 | 0 | 1.6 | 9.7 | 0.00 | 0.00 | 0.00 | 81 | 1014.0 |
| 20260904113524 | 23 | 0 | 1.6 | 8.0 | 0.00 | 0.00 | 0.00 | 81 | 1014.0 |
| 20260904113049 | 23 | 0 | 0.0 | 8.0 | 0.00 | 0.00 | 0.00 | 81 | 1013.9 |
| 20260904112524 | 24 | 0 | 1.6 | 8.0 | 0.00 | 0.00 | 0.00 | 80 | 1013.8 |
| 20260904112024 | 24 | 159 | 0.0 | 9.7 | 0.00 | 0.00 | 0.00 | 80 | 1013.8 |
| 20260904111552 | 24 | 0 | 1.6 | 9.7 | 0.00 | 0.00 | 0.00 | 80 | 1013.8 |
| 20260904111025 | 24 | 153 | 0.0 | 8.0 | 0.00 | 0.00 | 0.00 | 80 | 1013.9 |
| 20260904110524 | 24 | 173 | 0.0 | 8.0 | 0.00 | 0.00 | 0.00 | 80 | 1013.9 |
| 20260904110049 | 24 | 149 | 1.6 | 8.0 | 0.00 | 0.00 | 0.00 | 80 | 1013.8 |
| 20260904105523 | 24 | 0 | 0.0 | 8.0 | 0.00 | 0.00 | 0.00 | 79 | 1013.8 |
| 20260904105023 | 24 | 0 | 1.6 | 8.0 | 0.00 | 0.00 | 0.00 | 79 | 1013.8 |
| 20260904104542 | 24 | 182 | 0.0 | 6.4 | 0.00 | 0.00 | 0.00 | 79 | 1013.8 |
| 20260904104025 | 25 | 0 | 1.6 | 6.4 | 0.00 | 0.00 | 0.00 | 78 | 1013.8 |
| 20260904103529 | 25 | 173 | 0.0 | 9.7 | 0.00 | 0.00 | 0.00 | 78 | 1013.8 |
| 20260904103044 | 25 | 0 | 1.6 | 9.7 | 0.00 | 0.00 | 0.00 | 78 | 1013.7 |
| 20260904102524 | 25 | 0 | 1.6 | 12.9 | 0.00 | 0.00 | 0.00 | 78 | 1013.7 |
| 20260904102024 | 25 | 0 | 1.6 | 12.9 | 0.00 | 0.00 | 0.00 | 78 | 1013.7 |
| 20260904101559 | 25 | 162 | 3.2 | 11.3 | 0.00 | 0.00 | 0.00 | 78 | 1013.7 |
| 20260904101023 | 25 | 161 | 3.2 | 11.3 | 0.00 | 0.00 | 0.00 | 77 | 1013.5 |
| 20260904100523 | 25 | 173 | 3.2 | 8.0 | 0.00 | 0.00 | 0.00 | 77 | 1013.5 |
| 20260904100045 | 25 | 166 | 1.6 | 8.0 | 0.00 | 0.00 | 0.00 | 77 | 1013.4 |
| 20260904095530 | 25 | 169 | 1.6 | 9.7 | 0.00 | 0.00 | 0.00 | 77 | 1013.5 |
| 20260904095024 | 25 | 206 | 1.6 | 9.7 | 0.00 | 0.00 | 0.00 | 76 | 1013.4 |
| 20260904094546 | 25 | 0 | 3.2 | 9.7 | 0.00 | 0.00 | 0.00 | 76 | 1013.4 |
| 20260904094024 | 25 | 150 | 1.6 | 9.7 | 0.00 | 0.00 | 0.00 | 76 | 1013.3 |
| 20260904093524 | 25 | 165 | 3.2 | 9.7 | 0.00 | 0.00 | 0.00 | 76 | 1013.2 |
| 20260904093041 | 25 | 173 | 3.2 | 9.7 | 0.00 | 0.00 | 0.00 | 76 | 1013.1 |
| 20260904092528 | 25 | 194 | 0.0 | 8.0 | 0.00 | 0.00 | 0.00 | 77 | 1013.1 |
| 20260904092025 | 25 | 175 | 0.0 | 11.3 | 0.00 | 0.00 | 0.00 | 77 | 1013.1 |
| 20260904091549 | 25 | 0 | 1.6 | 11.3 | 0.00 | 0.00 | 0.00 | 77 | 1012.9 |
| 20260904091027 | 25 | 184 | 0.0 | 6.4 | 0.00 | 0.00 | 0.00 | 77 | 1012.9 |
| 20260904090526 | 25 | 0 | 0.0 | 6.4 | 0.00 | 0.00 | 0.00 | 76 | 1012.9 |
| 20260904090047 | 25 | 0 | 0.0 | 6.4 | 0.00 | 0.00 | 0.00 | 76 | 1012.9 |
| 20260904085527 | 25 | 0 | 0.0 | 8.0 | 0.00 | 0.00 | 0.00 | 75 | 1012.8 |
| 20260904085023 | 25 | 0 | 0.0 | 8.0 | 0.00 | 0.00 | 0.00 | 75 | 1012.9 |
| 20260904084545 | 25 | 0 | 0.0 | 8.0 | 0.00 | 0.00 | 0.00 | 75 | 1012.8 |
| 20260904084025 | 26 | 0 | 0.0 | 8.0 | 0.00 | 0.00 | 0.00 | 74 | 1012.8 |
| 20260904083524 | 26 | 0 | 0.0 | 6.4 | 0.00 | 0.00 | 0.00 | 74 | 1012.9 |
| 20260904083055 | 26 | 0 | 0.0 | 6.4 | 0.00 | 0.00 | 0.00 | 74 | 1012.8 |
| 20260904082527 | 26 | 169 | 0.0 | 6.4 | 0.00 | 0.00 | 0.00 | 74 | 1012.9 |
| 20260904082027 | 26 | 0 | 0.0 | 4.8 | 0.00 | 0.00 | 0.00 | 74 | 1012.8 |
| 20260904081545 | 26 | 0 | 0.0 | 11.3 | 0.00 | 0.00 | 0.00 | 74 | 1012.8 |
| 20260904081024 | 26 | 0 | 0.0 | 11.3 | 0.00 | 0.00 | 0.00 | 74 | 1012.8 |
| 20260904080524 | 26 | 0 | 1.6 | 9.7 | 0.00 | 0.00 | 0.00 | 74 | 1012.9 |
| 20260904080044 | 26 | 0 | 0.0 | 8.0 | 0.00 | 0.00 | 0.00 | 74 | 1012.8 |
| 20260904075524 | 26 | 0 | 0.0 | 8.0 | 0.00 | 0.00 | 0.00 | 74 | 1012.9 |
| 20260904075025 | 26 | 179 | 0.0 | 8.0 | 0.00 | 0.00 | 0.00 | 74 | 1012.8 |
| 20260904074553 | 26 | 0 | 0.0 | 8.0 | 0.00 | 0.00 | 0.00 | 74 | 1012.9 |
| 20260904074024 | 26 | 173 | 0.0 | 8.0 | 0.00 | 0.00 | 0.00 | 73 | 1012.9 |
| 20260904073524 | 26 | 198 | 0.0 | 8.0 | 0.00 | 0.00 | 0.00 | 73 | 1012.9 |
| 20260904073050 | 26 | 0 | 0.0 | 6.4 | 0.00 | 0.00 | 0.00 | 73 | 1012.9 |
| 20260904072527 | 26 | 0 | 0.0 | 4.8 | 0.00 | 0.00 | 0.00 | 73 | 1012.9 |
| 20260904072023 | 26 | 0 | 0.0 | 4.8 | 0.00 | 0.00 | 0.00 | 73 | 1012.8 |
| 20260904071546 | 26 | 0 | 0.0 | 3.2 | 0.00 | 0.00 | 0.00 | 73 | 1012.9 |
| 20260904071024 | 26 | 0 | 0.0 | 3.2 | 0.00 | 0.00 | 0.00 | 72 | 1012.8 |
| 20260904070530 | 26 | 0 | 0.0 | 3.2 | 0.00 | 0.00 | 0.00 | 72 | 1012.9 |
| 20260904070044 | 26 | 0 | 0.0 | 3.2 | 0.00 | 0.00 | 0.00 | 72 | 1012.9 |
| 20260904065525 | 26 | 0 | 0.0 | 3.2 | 0.00 | 0.00 | 0.00 | 72 | 1013.0 |
| 20260904065024 | 26 | 0 | 0.0 | 3.2 | 0.00 | 0.00 | 0.00 | 71 | 1013.0 |
| 20260904064540 | 26 | 0 | 0.0 | 3.2 | 0.00 | 0.00 | 0.00 | 71 | 1013.1 |
| 20260904064027 | 26 | 0 | 0.0 | 3.2 | 0.00 | 0.00 | 0.00 | 70 | 1013.0 |
| 20260904063523 | 26 | 263 | 0.0 | 1.6 | 0.00 | 0.00 | 0.00 | 70 | 1013.0 |
| 20260904063105 | 27 | 0 | 0.0 | 3.2 | 0.00 | 0.00 | 0.00 | 70 | 1013.1 |
| 20260904062525 | 27 | 0 | 0.0 | 3.2 | 0.00 | 0.00 | 0.00 | 69 | 1013.0 |
| 20260904062026 | 27 | 0 | 0.0 | 4.8 | 0.00 | 0.00 | 0.00 | 69 | 1013.1 |
| 20260904061545 | 27 | 0 | 0.0 | 4.8 | 0.00 | 0.00 | 0.00 | 69 | 1013.1 |
| 20260904061028 | 27 | 0 | 0.0 | 0.0 | 0.00 | 0.00 | 0.00 | 68 | 1013.1 |
| 20260904060525 | 27 | 0 | 0.0 | 3.2 | 0.00 | 0.00 | 0.00 | 68 | 1013.0 |
| 20260904060106 | 27 | 0 | 0.0 | 3.2 | 0.00 | 0.00 | 0.00 | 67 | 1012.9 |
| 20260904055525 | 27 | 0 | 0.0 | 6.4 | 0.00 | 0.00 | 0.00 | 67 | 1012.9 |
| 20260904055025 | 27 | 0 | 0.0 | 6.4 | 0.00 | 0.00 | 0.00 | 66 | 1012.9 |
| 20260904054542 | 27 | 0 | 0.0 | 1.6 | 0.00 | 0.00 | 0.00 | 66 | 1012.8 |
| 20260904054027 | 27 | 0 | 0.0 | 1.6 | 0.00 | 0.00 | 0.00 | 65 | 1012.8 |
| 20260904053523 | 27 | 0 | 0.0 | 1.6 | 0.00 | 0.00 | 0.00 | 65 | 1012.8 |
| 20260904053046 | 27 | 0 | 0.0 | 1.6 | 0.00 | 0.00 | 0.00 | 64 | 1012.8 |
| 20260904052524 | 28 | 0 | 0.0 | 6.4 | 0.00 | 0.00 | 0.00 | 64 | 1012.8 |
| 20260904052028 | 28 | 125 | 0.0 | 6.4 | 0.00 | 0.00 | 0.00 | 64 | 1012.8 |
| 20260904051548 | 28 | 0 | 0.0 | 3.2 | 0.00 | 0.00 | 0.00 | 63 | 1012.7 |
| 20260904051021 | 28 | 0 | 0.0 | 8.0 | 0.00 | 0.00 | 0.00 | 63 | 1012.7 |
| 20260904050523 | 28 | 236 | 0.0 | 8.0 | 0.00 | 0.00 | 0.00 | 63 | 1012.6 |
| 20260904050044 | 28 | 169 | 0.0 | 8.0 | 0.00 | 0.00 | 0.00 | 63 | 1012.7 |
| 20260904045526 | 28 | 0 | 0.0 | 9.7 | 0.00 | 0.00 | 0.00 | 62 | 1012.7 |
| 20260904045024 | 28 | 167 | 1.6 | 11.3 | 0.00 | 0.00 | 0.00 | 62 | 1012.7 |
| 20260904044549 | 28 | 170 | 3.2 | 11.3 | 0.00 | 0.00 | 0.00 | 62 | 1012.7 |
| 20260904044025 | 28 | 169 | 1.6 | 11.3 | 0.00 | 0.00 | 0.00 | 62 | 1012.7 |
| 20260904043523 | 28 | 176 | 1.6 | 11.3 | 0.00 | 0.00 | 0.00 | 61 | 1012.7 |
| 20260904043047 | 28 | 0 | 1.6 | 9.7 | 0.00 | 0.00 | 0.00 | 61 | 1012.6 |
| 20260904042524 | 28 | 0 | 1.6 | 8.0 | 0.00 | 0.00 | 0.00 | 62 | 1012.6 |
| 20260904042024 | 28 | 167 | 1.6 | 8.0 | 0.00 | 0.00 | 0.00 | 62 | 1012.4 |
| 20260904041545 | 28 | 175 | 0.0 | 8.0 | 0.00 | 0.00 | 0.00 | 62 | 1012.5 |
| 20260904041028 | 28 | 143 | 0.0 | 8.0 | 0.00 | 0.00 | 0.00 | 62 | 1012.4 |
| 20260904040523 | 28 | 0 | 0.0 | 8.0 | 0.00 | 0.00 | 0.00 | 62 | 1012.4 |
| 20260904040046 | 28 | 0 | 0.0 | 8.0 | 0.00 | 0.00 | 0.00 | 62 | 1012.5 |
| 20260904035524 | 28 | 0 | 1.6 | 8.0 | 0.00 | 0.00 | 0.00 | 61 | 1012.5 |
| 20260904035025 | 28 | 0 | 0.0 | 4.8 | 0.00 | 0.00 | 0.00 | 61 | 1012.5 |
| 20260904034557 | 29 | 0 | 0.0 | 4.8 | 0.00 | 0.00 | 0.00 | 61 | 1012.5 |
| 20260904034024 | 29 | 0 | 0.0 | 4.8 | 0.00 | 0.00 | 0.00 | 60 | 1012.5 |
| 20260904033524 | 29 | 0 | 0.0 | 6.4 | 0.00 | 0.00 | 0.00 | 60 | 1012.5 |
| 20260904033041 | 29 | 0 | 0.0 | 9.7 | 0.00 | 0.00 | 0.00 | 59 | 1012.4 |
| 20260904032525 | 29 | 0 | 0.0 | 9.7 | 0.00 | 0.00 | 0.00 | 59 | 1012.4 |
| 20260904032023 | 29 | 163 | 1.6 | 9.7 | 0.00 | 0.00 | 0.00 | 59 | 1012.4 |
| 20260904031547 | 29 | 0 | 1.6 | 8.0 | 0.00 | 0.00 | 0.00 | 59 | 1012.5 |
| 20260904031024 | 30 | 0 | 0.0 | 6.4 | 0.00 | 0.00 | 0.00 | 59 | 1012.4 |
| 20260904030526 | 30 | 0 | 0.0 | 6.4 | 0.00 | 0.00 | 0.00 | 59 | 1012.4 |
| 20260904030042 | 30 | 0 | 0.0 | 6.4 | 0.00 | 0.00 | 0.00 | 59 | 1012.4 |
| 20260904025524 | 30 | 0 | 0.0 | 6.4 | 0.00 | 0.00 | 0.00 | 59 | 1012.3 |
| 20260904025024 | 30 | 0 | 0.0 | 3.2 | 0.00 | 0.00 | 0.00 | 59 | 1012.3 |
| 20260904024542 | 30 | 0 | 0.0 | 1.6 | 0.00 | 0.00 | 0.00 | 59 | 1012.2 |
| 20260904024025 | 30 | 0 | 0.0 | 3.2 | 0.00 | 0.00 | 0.00 | 58 | 1012.2 |
| 20260904023529 | 30 | 0 | 0.0 | 3.2 | 0.00 | 0.00 | 0.00 | 58 | 1012.1 |
| 20260904023053 | 30 | 0 | 0.0 | 8.0 | 0.00 | 0.00 | 0.00 | 57 | 1012.1 |
| 20260904022524 | 30 | 173 | 0.0 | 8.0 | 0.00 | 0.00 | 0.00 | 57 | 1012.0 |
| 20260904022023 | 30 | 0 | 0.0 | 8.0 | 0.00 | 0.00 | 0.00 | 57 | 1012.0 |
| 20260904021549 | 30 | 0 | 0.0 | 8.0 | 0.00 | 0.00 | 0.00 | 56 | 1011.9 |
| 20260904021024 | 31 | 0 | 0.0 | 8.0 | 0.00 | 0.00 | 0.00 | 56 | 1011.9 |
| 20260904020524 | 31 | 0 | 0.0 | 1.6 | 0.00 | 0.00 | 0.00 | 55 | 1011.8 |
| 20260904020044 | 31 | 0 | 0.0 | 3.2 | 0.00 | 0.00 | 0.00 | 55 | 1011.8 |
| 20260904015524 | 31 | 0 | 0.0 | 3.2 | 0.00 | 0.00 | 0.00 | 54 | 1011.8 |
| 20260904015026 | 31 | 0 | 0.0 | 6.4 | 0.00 | 0.00 | 0.00 | 54 | 1011.7 |
| 20260904014549 | 31 | 0 | 0.0 | 6.4 | 0.00 | 0.00 | 0.00 | 53 | 1011.6 |
| 20260904014027 | 31 | 160 | 0.0 | 3.2 | 0.00 | 0.00 | 0.00 | 53 | 1011.5 |
| 20260904013523 | 31 | 0 | 0.0 | 8.0 | 0.00 | 0.00 | 0.00 | 53 | 1011.5 |
| 20260904013042 | 31 | 0 | 0.0 | 8.0 | 0.00 | 0.00 | 0.00 | 52 | 1011.3 |
| 20260904012530 | 31 | 0 | 0.0 | 6.4 | 0.00 | 0.00 | 0.00 | 52 | 1011.3 |
| 20260904012027 | 31 | 0 | 1.6 | 6.4 | 0.00 | 0.00 | 0.00 | 52 | 1011.2 |
| 20260904011548 | 32 | 0 | 0.0 | 6.4 | 0.00 | 0.00 | 0.00 | 52 | 1011.1 |
| 20260904011028 | 32 | 0 | 0.0 | 6.4 | 0.00 | 0.00 | 0.00 | 52 | 1011.1 |
| 20260904010527 | 32 | 0 | 0.0 | 1.6 | 0.00 | 0.00 | 0.00 | 52 | 1011.1 |
| 20260904010053 | 32 | 0 | 0.0 | 4.8 | 0.00 | 0.00 | 0.00 | 51 | 1010.9 |
| 20260904005523 | 32 | 0 | 0.0 | 4.8 | 0.00 | 0.00 | 0.00 | 50 | 1011.0 |
| 20260904005024 | 32 | 0 | 0.0 | 9.7 | 0.00 | 0.00 | 0.00 | 50 | 1011.0 |
| 20260904004559 | 32 | 0 | 0.0 | 9.7 | 0.00 | 0.00 | 0.00 | 49 | 1011.0 |
| 20260904004026 | 33 | 156 | 0.0 | 9.7 | 0.00 | 0.00 | 0.00 | 49 | 1010.9 |
| 20260904003531 | 33 | 0 | 0.0 | 4.8 | 0.00 | 0.00 | 0.00 | 49 | 1010.9 |
| 20260904003045 | 33 | 0 | 1.6 | 9.7 | 0.00 | 0.00 | 0.00 | 48 | 1010.9 |
| 20260904002526 | 33 | 176 | 0.0 | 9.7 | 0.00 | 0.00 | 0.00 | 47 | 1010.9 |
| 20260904002024 | 33 | 183 | 1.6 | 9.7 | 0.00 | 0.00 | 0.00 | 47 | 1011.0 |
| 20260904001541 | 33 | 0 | 1.6 | 9.7 | 0.00 | 0.00 | 0.00 | 46 | 1011.0 |
| 20260904001029 | 33 | 0 | 3.2 | 11.3 | 0.00 | 0.00 | 0.00 | 46 | 1011.0 |
| 20260904000526 | 34 | 153 | 3.2 | 11.3 | 0.00 | 0.00 | 0.00 | 45 | 1011.0 |
| 20260904000103 | 34 | 211 | 3.2 | 11.3 | 0.00 | 0.00 | 0.00 | 45 | 1010.9 |
| 20260903235525 | 34 | 178 | 1.6 | 11.3 | 0.00 | 0.00 | 0.00 | 44 | 1010.9 |
| 20260903235024 | 34 | 184 | 3.2 | 14.5 | 0.00 | 0.00 | 0.00 | 44 | 1011.0 |
| 20260903234549 | 35 | 180 | 3.2 | 16.1 | 0.00 | 0.00 | 0.00 | 44 | 1010.9 |
| 20260903234023 | 35 | 148 | 3.2 | 16.1 | 0.00 | 0.00 | 0.00 | 43 | 1010.8 |
| 20260903233527 | 35 | 174 | 3.2 | 16.1 | 0.00 | 0.00 | 0.00 | 43 | 1010.8 |
| 20260903233047 | 35 | 0 | 4.8 | 17.7 | 0.00 | 0.00 | 0.00 | 43 | 1010.9 |
| 20260903232521 | 35 | 163 | 6.4 | 17.7 | 0.00 | 0.00 | 0.00 | 43 | 1010.8 |
| 20260903232025 | 35 | 0 | 0.0 | 14.5 | 0.00 | 0.00 | 0.00 | 43 | 1010.9 |
| 20260903231545 | 35 | 159 | 4.8 | 17.7 | 0.00 | 0.00 | 0.00 | 42 | 1010.9 |
| 20260903231024 | 35 | 242 | 3.2 | 17.7 | 0.00 | 0.00 | 0.00 | 42 | 1010.9 |
| 20260903230524 | 35 | 143 | 4.8 | 17.7 | 0.00 | 0.00 | 0.00 | 41 | 1010.8 |
| 20260903230046 | 35 | 176 | 3.2 | 17.7 | 0.00 | 0.00 | 0.00 | 41 | 1010.8 |
| 20260903225528 | 35 | 186 | 4.8 | 20.9 | 0.00 | 0.00 | 0.00 | 41 | 1010.8 |
| 20260903225025 | 35 | 0 | 4.8 | 20.9 | 0.00 | 0.00 | 0.00 | 41 | 1010.8 |
| 20260903224551 | 35 | 258 | 6.4 | 22.5 | 0.00 | 0.00 | 0.00 | 41 | 1010.7 |
| 20260903224029 | 35 | 159 | 8.0 | 22.5 | 0.00 | 0.00 | 0.00 | 41 | 1010.8 |
| 20260903223524 | 35 | 188 | 4.8 | 22.5 | 0.00 | 0.00 | 0.00 | 42 | 1010.8 |
| 20260903223045 | 35 | 184 | 8.0 | 22.5 | 0.00 | 0.00 | 0.00 | 41 | 1010.8 |
| 20260903222525 | 35 | 182 | 4.8 | 25.7 | 0.00 | 0.00 | 0.00 | 42 | 1010.8 |
| 20260903222029 | 35 | 109 | 8.0 | 27.4 | 0.00 | 0.00 | 0.00 | 42 | 1010.9 |
| 20260903221543 | 36 | 0 | 3.2 | 30.6 | 0.00 | 0.00 | 0.00 | 42 | 1010.9 |
| 20260903221024 | 36 | 238 | 4.8 | 30.6 | 0.00 | 0.00 | 0.00 | 42 | 1010.9 |
| 20260903220524 | 36 | 132 | 6.4 | 25.7 | 0.00 | 0.00 | 0.00 | 42 | 1010.9 |
| 20260903220105 | 35 | 219 | 8.0 | 25.7 | 0.00 | 0.00 | 0.00 | 43 | 1010.9 |
| 20260903215528 | 36 | 85 | 9.7 | 27.4 | 0.00 | 0.00 | 0.00 | 42 | 1011.0 |
| 20260903215024 | 36 | 190 | 9.7 | 29.0 | 0.00 | 0.00 | 0.00 | 43 | 1011.0 |
| 20260903214543 | 36 | 135 | 4.8 | 29.0 | 0.00 | 0.00 | 0.00 | 42 | 1011.0 |
| 20260903214022 | 36 | 96 | 8.0 | 19.3 | 0.00 | 0.00 | 0.00 | 43 | 1011.1 |
| 20260903213528 | 36 | 270 | 4.8 | 22.5 | 0.00 | 0.00 | 0.00 | 42 | 1011.1 |
| 20260903213043 | 36 | 246 | 11.3 | 22.5 | 0.00 | 0.00 | 0.00 | 42 | 1011.1 |
| 20260903212522 | 36 | 147 | 8.0 | 20.9 | 0.00 | 0.00 | 0.00 | 42 | 1011.1 |
| 20260903212025 | 36 | 0 | 6.4 | 20.9 | 0.00 | 0.00 | 0.00 | 42 | 1011.1 |
| 20260903211611 | 36 | 134 | 8.0 | 22.5 | 0.00 | 0.00 | 0.00 | 43 | 1011.2 |
| 20260903211028 | 36 | 140 | 3.2 | 25.7 | 0.00 | 0.00 | 0.00 | 43 | 1011.1 |
| 20260903210524 | 36 | 0 | 3.2 | 25.7 | 0.00 | 0.00 | 0.00 | 43 | 1011.2 |
| 20260903210054 | 36 | 144 | 9.7 | 25.7 | 0.00 | 0.00 | 0.00 | 43 | 1011.3 |
| 20260903205525 | 36 | 93 | 6.4 | 20.9 | 0.00 | 0.00 | 0.00 | 42 | 1011.4 |
| 20260903205023 | 36 | 154 | 6.4 | 20.9 | 0.00 | 0.00 | 0.00 | 43 | 1011.4 |
| 20260903204542 | 35 | 181 | 6.4 | 27.4 | 0.00 | 0.00 | 0.00 | 44 | 1011.5 |
| 20260903204025 | 35 | 105 | 8.0 | 27.4 | 0.00 | 0.00 | 0.00 | 42 | 1011.6 |
| 20260903203525 | 36 | 0 | 8.0 | 24.1 | 0.00 | 0.00 | 0.00 | 43 | 1011.6 |
| 20260903203043 | 36 | 191 | 6.4 | 19.3 | 0.00 | 0.00 | 0.00 | 43 | 1011.8 |
| 20260903202524 | 36 | 195 | 4.8 | 19.3 | 0.00 | 0.00 | 0.00 | 42 | 1011.8 |
| 20260903202027 | 35 | 0 | 6.4 | 20.9 | 0.00 | 0.00 | 0.00 | 45 | 1011.8 |
| 20260903201542 | 35 | 197 | 8.0 | 24.1 | 0.00 | 0.00 | 0.00 | 44 | 1011.9 |
| 20260903201023 | 35 | 215 | 8.0 | 25.7 | 0.00 | 0.00 | 0.00 | 43 | 1012.0 |
| 20260903200523 | 35 | 131 | 6.4 | 25.7 | 0.00 | 0.00 | 0.00 | 44 | 1012.0 |
| 20260903200048 | 35 | 214 | 4.8 | 20.9 | 0.00 | 0.00 | 0.00 | 45 | 1012.1 |
| 20260903195525 | 35 | 193 | 6.4 | 20.9 | 0.00 | 0.00 | 0.00 | 45 | 1012.2 |
| 20260903195024 | 35 | 161 | 8.0 | 20.9 | 0.00 | 0.00 | 0.00 | 46 | 1012.2 |
| 20260903194548 | 35 | 190 | 6.4 | 19.3 | 0.00 | 0.00 | 0.00 | 45 | 1012.2 |
| 20260903194024 | 35 | 126 | 4.8 | 19.3 | 0.00 | 0.00 | 0.00 | 45 | 1012.4 |
| 20260903193526 | 36 | 274 | 3.2 | 17.7 | 0.00 | 0.00 | 0.00 | 46 | 1012.3 |
| 20260903193046 | 35 | 157 | 4.8 | 20.9 | 0.00 | 0.00 | 0.00 | 47 | 1012.3 |
| 20260903192525 | 35 | 140 | 8.0 | 22.5 | 0.00 | 0.00 | 0.00 | 46 | 1012.4 |
| 20260903192024 | 35 | 178 | 8.0 | 22.5 | 0.00 | 0.00 | 0.00 | 46 | 1012.3 |
| 20260903191542 | 35 | 0 | 6.4 | 22.5 | 0.00 | 0.00 | 0.00 | 46 | 1012.4 |
| 20260903191025 | 35 | 143 | 8.0 | 20.9 | 0.00 | 0.00 | 0.00 | 46 | 1012.4 |
| 20260903190525 | 35 | 0 | 4.8 | 17.7 | 0.00 | 0.00 | 0.00 | 46 | 1012.4 |
| 20260903190048 | 35 | 198 | 8.0 | 17.7 | 0.00 | 0.00 | 0.00 | 46 | 1012.5 |
| 20260903185523 | 35 | 155 | 4.8 | 25.7 | 0.00 | 0.00 | 0.00 | 46 | 1012.5 |
| 20260903185024 | 35 | 253 | 4.8 | 25.7 | 0.00 | 0.00 | 0.00 | 47 | 1012.6 |
| 20260903184542 | 35 | 0 | 8.0 | 24.1 | 0.00 | 0.00 | 0.00 | 47 | 1012.7 |
| 20260903184027 | 35 | 159 | 6.4 | 24.1 | 0.00 | 0.00 | 0.00 | 47 | 1012.7 |
| 20260903183528 | 35 | 196 | 4.8 | 24.1 | 0.00 | 0.00 | 0.00 | 48 | 1012.8 |
| 20260903183052 | 34 | 133 | 9.7 | 24.1 | 0.00 | 0.00 | 0.00 | 49 | 1012.8 |
| 20260903182526 | 33 | 164 | 6.4 | 27.4 | 0.00 | 0.00 | 0.00 | 49 | 1012.9 |
| 20260903182024 | 34 | 176 | 8.0 | 32.2 | 0.00 | 0.00 | 0.00 | 48 | 1013.1 |
| 20260903181545 | 35 | 171 | 8.0 | 32.2 | 0.00 | 0.00 | 0.00 | 45 | 1013.0 |
| 20260903181023 | 35 | 0 | 1.6 | 14.5 | 0.00 | 0.00 | 0.00 | 48 | 1013.1 |
| 20260903180524 | 35 | 0 | 4.8 | 22.5 | 0.00 | 0.00 | 0.00 | 46 | 1013.1 |
| 20260903180044 | 34 | 0 | 6.4 | 22.5 | 0.00 | 0.00 | 0.00 | 46 | 1013.3 |
| 20260903175528 | 35 | 153 | 4.8 | 17.7 | 0.00 | 0.00 | 0.00 | 46 | 1013.4 |
| 20260903175024 | 34 | 225 | 6.4 | 19.3 | 0.00 | 0.00 | 0.00 | 48 | 1013.4 |
| 20260903174600 | 34 | 165 | 4.8 | 19.3 | 0.00 | 0.00 | 0.00 | 47 | 1013.5 |
| 20260903174024 | 34 | 271 | 3.2 | 19.3 | 0.00 | 0.00 | 0.00 | 47 | 1013.5 |
| 20260903173525 | 34 | 0 | 4.8 | 19.3 | 0.00 | 0.00 | 0.00 | 47 | 1013.6 |
| 20260903173043 | 34 | 327 | 3.2 | 22.5 | 0.00 | 0.00 | 0.00 | 48 | 1013.6 |
| 20260903172524 | 33 | 0 | 6.4 | 22.5 | 0.00 | 0.00 | 0.00 | 50 | 1013.6 |
| 20260903172024 | 33 | 152 | 8.0 | 22.5 | 0.00 | 0.00 | 0.00 | 48 | 1013.7 |
| 20260903171548 | 33 | 141 | 3.2 | 19.3 | 0.00 | 0.00 | 0.00 | 49 | 1013.8 |
| 20260903171021 | 33 | 180 | 4.8 | 20.9 | 0.00 | 0.00 | 0.00 | 49 | 1013.9 |
| 20260903170524 | 33 | 181 | 8.0 | 24.1 | 0.00 | 0.00 | 0.00 | 49 | 1014.0 |
| 20260903170104 | 33 | 263 | 4.8 | 24.1 | 0.00 | 0.00 | 0.00 | 50 | 1014.0 |
| 20260903165522 | 33 | 192 | 4.8 | 20.9 | 0.00 | 0.00 | 0.00 | 51 | 1014.1 |
| 20260903165024 | 32 | 171 | 8.0 | 19.3 | 0.00 | 0.00 | 0.00 | 51 | 1014.1 |
| 20260903164550 | 32 | 317 | 6.4 | 24.1 | 0.00 | 0.00 | 0.00 | 52 | 1014.1 |
| 20260903164024 | 32 | 166 | 6.4 | 24.1 | 0.00 | 0.00 | 0.00 | 53 | 1014.1 |
| 20260903163523 | 32 | 165 | 6.4 | 22.5 | 0.00 | 0.00 | 0.00 | 52 | 1014.1 |
| 20260903163045 | 32 | 218 | 4.8 | 22.5 | 0.00 | 0.00 | 0.00 | 53 | 1014.1 |
| 20260903162522 | 32 | 152 | 1.6 | 22.5 | 0.00 | 0.00 | 0.00 | 53 | 1014.1 |
| 20260903162025 | 32 | 182 | 6.4 | 22.5 | 0.00 | 0.00 | 0.00 | 54 | 1014.1 |
| 20260903161544 | 32 | 156 | 3.2 | 19.3 | 0.00 | 0.00 | 0.00 | 54 | 1014.2 |
| 20260903161026 | 32 | 199 | 4.8 | 25.7 | 0.00 | 0.00 | 0.00 | 54 | 1014.1 |
| 20260903160525 | 31 | 215 | 9.7 | 25.7 | 0.00 | 0.00 | 0.00 | 53 | 1014.1 |
| 20260903160041 | 32 | 113 | 8.0 | 20.9 | 0.00 | 0.00 | 0.00 | 54 | 1014.1 |
| 20260903155525 | 31 | 163 | 3.2 | 20.9 | 0.00 | 0.00 | 0.00 | 55 | 1014.1 |
| 20260903155026 | 31 | 201 | 6.4 | 20.9 | 0.00 | 0.00 | 0.00 | 55 | 1014.3 |
| 20260903154546 | 31 | 117 | 6.4 | 20.9 | 0.00 | 0.00 | 0.00 | 55 | 1014.2 |
| 20260903154024 | 31 | 0 | 3.2 | 19.3 | 0.00 | 0.00 | 0.00 | 58 | 1014.2 |
| 20260903153525 | 31 | 271 | 3.2 | 20.9 | 0.00 | 0.00 | 0.00 | 57 | 1014.1 |
| 20260903153054 | 31 | 0 | 4.8 | 20.9 | 0.00 | 0.00 | 0.00 | 58 | 1014.2 |
| 20260903152526 | 30 | 41 | 6.4 | 20.9 | 0.00 | 0.00 | 0.00 | 58 | 1014.3 |
| 20260903152024 | 30 | 256 | 4.8 | 17.7 | 0.00 | 0.00 | 0.00 | 59 | 1014.3 |
| 20260903151553 | 30 | 0 | 3.2 | 29.0 | 0.00 | 0.00 | 0.00 | 59 | 1014.3 |
| 20260903151023 | 30 | 0 | 4.8 | 29.0 | 0.00 | 0.00 | 0.00 | 61 | 1014.3 |
| 20260903150522 | 30 | 166 | 8.0 | 29.0 | 0.00 | 0.00 | 0.00 | 60 | 1014.2 |
| 20260903150046 | 30 | 12 | 3.2 | 27.4 | 0.00 | 0.00 | 0.00 | 62 | 1014.2 |
| 20260903145528 | 30 | 154 | 4.8 | 27.4 | 0.00 | 0.00 | 0.00 | 62 | 1014.2 |
| 20260903145028 | 30 | 194 | 4.8 | 22.5 | 0.00 | 0.00 | 0.00 | 62 | 1014.1 |
| 20260903144547 | 29 | 173 | 4.8 | 22.5 | 0.00 | 0.00 | 0.00 | 63 | 1014.1 |
| 20260903144025 | 29 | 196 | 3.2 | 22.5 | 0.00 | 0.00 | 0.00 | 64 | 1014.2 |
| 20260903143525 | 28 | 206 | 1.6 | 20.9 | 0.00 | 0.00 | 0.00 | 66 | 1014.3 |
| 20260903143044 | 28 | 0 | 4.8 | 20.9 | 0.00 | 0.00 | 0.00 | 66 | 1014.3 |
| 20260903142525 | 28 | 205 | 4.8 | 16.1 | 0.00 | 0.00 | 0.00 | 66 | 1014.4 |
| 20260903142026 | 28 | 0 | 1.6 | 25.7 | 0.00 | 0.00 | 0.00 | 67 | 1014.3 |
| 20260903141549 | 27 | 159 | 3.2 | 25.7 | 0.00 | 0.00 | 0.00 | 68 | 1014.3 |
| 20260903141025 | 27 | 228 | 4.8 | 17.7 | 0.00 | 0.00 | 0.00 | 68 | 1014.4 |
| 20260903140524 | 27 | 178 | 3.2 | 17.7 | 0.00 | 0.00 | 0.00 | 68 | 1014.4 |
| 20260903140047 | 27 | 175 | 1.6 | 11.3 | 0.00 | 0.00 | 0.00 | 69 | 1014.4 |
| 20260903135525 | 27 | 164 | 1.6 | 20.9 | 0.00 | 0.00 | 0.00 | 69 | 1014.3 |
| 20260903135025 | 27 | 244 | 3.2 | 20.9 | 0.00 | 0.00 | 0.00 | 69 | 1014.5 |
| 20260903134544 | 26 | 194 | 4.8 | 17.7 | 0.00 | 0.00 | 0.00 | 70 | 1014.5 |
| 20260903134027 | 26 | 161 | 1.6 | 16.1 | 0.00 | 0.00 | 0.00 | 70 | 1014.5 |
| 20260903133525 | 26 | 0 | 1.6 | 9.7 | 0.00 | 0.00 | 0.00 | 71 | 1014.6 |
| 20260903133054 | 26 | 169 | 1.6 | 12.9 | 0.00 | 0.00 | 0.00 | 71 | 1014.5 |
| 20260903132523 | 26 | 0 | 1.6 | 12.9 | 0.00 | 0.00 | 0.00 | 71 | 1014.5 |
| 20260903132024 | 26 | 200 | 1.6 | 14.5 | 0.00 | 0.00 | 0.00 | 72 | 1014.5 |
| 20260903131555 | 25 | 161 | 4.8 | 14.5 | 0.00 | 0.00 | 0.00 | 72 | 1014.5 |
| 20260903131026 | 25 | 180 | 3.2 | 12.9 | 0.00 | 0.00 | 0.00 | 72 | 1014.5 |
| 20260903130525 | 25 | 176 | 1.6 | 12.9 | 0.00 | 0.00 | 0.00 | 73 | 1014.5 |
| 20260903130044 | 25 | 0 | 4.8 | 16.1 | 0.00 | 0.00 | 0.00 | 73 | 1014.5 |
| 20260903125523 | 25 | 206 | 3.2 | 16.1 | 0.00 | 0.00 | 0.00 | 74 | 1014.5 |
| 20260903125023 | 25 | 162 | 3.2 | 9.7 | 0.00 | 0.00 | 0.00 | 74 | 1014.4 |
| 20260903124546 | 25 | 0 | 1.6 | 8.0 | 0.00 | 0.00 | 0.00 | 74 | 1014.4 |